FENGYUN 1C DEB, 38818

Orbit data source: Space-Track

FENGYUN 1C DEB, 38818 is space debris in SSO originally from a launch on Mon, 10 May 1999 UTC launched from the Taiyaun Space Center, China (TSC). Fengyun 1C debris stems from the Chinese weather satellite Fengyun-1C, which was intentionally destroyed by a Chinese anti-satellite missile in 2007. This event dramatically increased the amount of space debris, with thousands of trackable fragments posing hazards to satellites and human spaceflight. The Fengyun 1C debris cloud has become a focal point in discussions about space sustainability and the need for international regulations to prevent the creation of new debris.

Loading next visibility...
Identifier
38818, 1999-025EVJ
Orbit
SSO
Country
Flag of CNCN / PRC
Related business
Manufacturer
Unknown
Mission
Spacecraft
Bus & Motor
Unknown
Mass
Unknown
Launch date (UTC)
1999-05-10 (27 years ago)
Launch vehicle
Unknown
Launch site
Taiyaun Space Center, China (TSC)
Object type
Payload
Rocket body
Debris
Shape & HBR
Unknown shape, 0.1 m
Radar Cross Section
Small (<0.1 m²)

Expand to show TLE details & history
Last TLE update: 1 week ago

TLE from 1 week ago
0 FENGYUN 1C DEB
1 38818U 99025EVJ 26151.40152843  .00001224  00000-0  38631-3 0  9998
2 38818  98.2763 207.1849 0085583 308.6106 115.3310 14.39948057696891
Epoch: 2026-05-31T09:38Z
TLE epoch observation values (Epoch: 2026-05-31T09:38:12.056Z)
Latitude
63.67419°
Longitude
156.72771°
Altitude
796.174 km
Speed
7.448 km/s
True Right ascension
12h 40m 43s
True Declination
63° 32' 17"
Sunlit
Object was in daylight at epoch
Visualization orbit readout
Latitude
Unknown
Longitude
Unknown
Altitude
Unknown
Speed
Unknown
Apparent Right ascension
Unknown
Apparent Declination
Unknown
Sunlit
N/A
Visualization observer readout
Local Sidereal Time
22:10:26
Azimuth
Unknown
Elevation
Unknown
Doppler factor
Unknown
Orbital elements
Apogee altitude
816.836 km
Perigee altitude
694.727 km
Semi-major axis
7,133.918 km
Eccentricity
0.00856
Inclination
98.2763°
RAAN
207.1849°
Arg. of periapsis
308.6106°
True anomaly
116.21334°
Mean anomaly
115.331°
Eccentric anomaly
115.77258°
Mean motion
3.60206 °/min
Orbital period
99.94 mins
BSTAR
0.00038631
Loading maneuver chart data...
Computing Atmospheric mass density...

Documentation

Showing up to 5 results
|